FW7255 Weather Reports


time (UTC)temp
C
wind
direction
speed
KPH
gust
KPH
rain 1hr
cm
rain 24hr
cm
rain mn
cm
humidity
%
barometer
mb
20260508030055 11 0 0.0 0.0 0.00 1.98 1.96 100 1013.6
20260508025548 11 0 0.0 0.0 0.00 1.98 1.96 100 1013.5
20260508025052 11 0 0.0 0.0 0.00 1.98 1.96 100 1013.4
20260508024557 11 0 0.0 0.0 0.00 1.98 1.96 100 1013.4
20260508024048 11 0 0.0 0.0 0.00 1.98 1.96 100 1013.3
20260508023553 11 0 0.0 0.0 0.00 1.98 1.96 100 1013.2
20260508023055 11 0 0.0 0.0 0.00 1.98 1.96 100 1013.1
20260508022551 11 0 0.0 0.0 0.00 1.98 1.96 100 1013.1
20260508022052 11 0 0.0 0.0 0.00 1.98 1.96 100 1013.2
20260508021554 11 0 0.0 0.0 0.00 1.98 1.96 100 1013.1
20260508021051 11 0 0.0 0.0 0.00 1.98 1.96 100 1013.1
20260508020554 11 0 0.0 0.0 0.00 1.98 1.96 100 1013.0
20260508020053 11 0 0.0 0.0 0.00 1.98 1.96 100 1013.4
20260508015550 11 0 0.0 0.0 0.00 1.98 1.96 100 1013.3
20260508015051 11 0 0.0 0.0 0.00 1.98 1.96 100 1013.0
20260508014552 11 0 0.0 0.0 0.00 1.98 1.96 100 1012.9
20260508014051 11 0 0.0 0.0 0.00 1.98 1.96 100 1012.7
20260508013554 11 0 0.0 0.0 0.00 1.98 1.96 100 1012.5
20260508013053 11 0 0.0 0.0 0.00 1.98 1.96 100 1012.5
20260508012549 11 0 0.0 0.0 0.00 1.98 1.96 100 1012.2
20260508012053 11 0 0.0 0.0 0.00 1.98 1.96 100 1012.2
20260508011559 12 0 0.0 0.0 0.00 1.98 1.96 100 1012.4
20260508011050 12 0 0.0 0.0 0.00 1.98 1.96 100 1012.5
20260508010552 12 0 0.0 0.0 0.00 1.98 1.96 100 1012.5
20260508010052 12 0 0.0 0.0 0.00 1.98 1.96 100 1012.6
20260508005550 12 0 0.0 0.0 0.00 1.98 1.96 100 1012.4
20260508005052 12 0 0.0 0.0 0.00 1.98 1.96 100 1012.2
20260508004549 12 0 0.0 1.6 0.00 1.98 1.96 100 1012.2
20260508004051 12 0 0.0 4.8 0.00 1.98 1.96 100 1012.0
20260508003548 11 0 0.0 6.4 0.00 1.98 1.96 100 1011.9
20260508003052 11 149 1.6 6.4 0.00 1.98 1.96 100 1012.0
20260508002548 11 0 0.0 1.6 0.00 1.98 1.96 100 1012.1
20260508002048 11 0 0.0 0.0 0.00 1.98 1.96 100 1012.1
20260508001551 11 0 0.0 1.6 0.00 1.98 1.96 100 1012.0
20260508001048 12 0 0.0 1.6 0.00 1.98 1.96 100 1012.0
20260508000550 12 0 0.0 1.6 0.00 1.98 1.96 100 1011.8
20260508000054 12 0 0.0 1.6 0.00 1.98 1.96 100 1011.5
20260507235550 12 0 0.0 0.0 0.00 1.98 1.96 100 1011.5
20260507235051 12 0 0.0 0.0 0.00 1.98 1.96 100 1011.3
20260507234552 12 0 0.0 0.0 0.00 1.98 1.96 100 1011.3
20260507234050 12 0 0.0 1.6 0.00 1.98 1.96 100 1011.3
20260507233552 12 0 0.0 3.2 0.00 1.98 1.96 100 1011.1
20260507233053 12 0 0.0 3.2 0.00 1.98 1.96 100 1011.0
20260507232548 12 0 1.6 3.2 0.00 1.98 1.96 100 1011.0
20260507232048 12 0 0.0 0.0 0.00 1.98 1.96 100 1011.0
20260507231556 12 0 0.0 4.8 0.00 1.98 1.96 100 1011.2
20260507231051 12 0 0.0 4.8 0.00 1.98 1.96 100 1011.2
20260507230551 12 0 0.0 0.0 0.00 1.98 1.96 100 1011.2
20260507225551 12 0 0.0 1.6 0.00 1.98 1.96 100 1011.3
20260507225053 12 0 0.0 1.6 0.00 1.98 1.96 100 1011.0
20260507224556 12 0 0.0 3.2 0.00 1.98 1.96 100 1010.9
20260507224054 12 0 0.0 3.2 0.00 1.98 1.96 100 1010.9
20260507223550 12 0 0.0 1.6 0.00 1.98 1.96 100 1010.9
20260507223057 12 0 0.0 3.2 0.00 1.98 1.96 100 1010.9
20260507222550 12 136 1.6 4.8 0.00 1.98 1.96 100 1010.8
20260507222049 12 206 0.0 4.8 0.00 1.98 1.96 100 1011.0
20260507221551 12 323 1.6 6.4 0.00 1.98 1.96 100 1011.1
20260507221047 12 0 1.6 6.4 0.00 1.98 1.96 100 1010.9
20260507220548 12 26 0.0 3.2 0.00 1.98 1.96 100 1011.2
20260507220054 12 272 0.0 3.2 0.00 1.98 1.96 100 1011.2
20260507215551 12 0 0.0 1.6 0.00 1.98 1.96 100 1011.1
20260507215050 12 0 0.0 1.6 0.00 1.98 1.96 100 1011.0
20260507214616 12 0 0.0 1.6 0.00 1.98 1.96 100 1011.0
20260507214051 12 0 0.0 4.8 0.00 1.98 1.96 100 1010.9
20260507213548 12 272 0.0 4.8 0.00 1.98 1.96 100 1011.0
20260507213104 12 52 0.0 6.4 0.00 1.98 1.96 100 1010.9
20260507212550 12 0 0.0 6.4 0.00 1.98 1.96 100 1011.0
20260507212050 12 290 0.0 4.8 0.00 1.98 1.96 100 1010.9
20260507211606 11 0 0.0 4.8 0.00 1.98 1.96 100 1011.0
20260507211050 11 57 1.6 4.8 0.00 1.98 1.96 100 1010.7
20260507210550 12 51 0.0 4.8 0.00 1.98 1.96 100 1010.8
20260507210054 12 273 0.0 8.0 0.00 1.98 1.96 100 1010.7
20260507205554 12 0 0.0 8.0 0.00 1.98 1.96 100 1010.4
20260507205049 12 32 1.6 8.0 0.00 1.98 1.96 100 1010.3
20260507204607 12 313 1.6 6.4 0.00 1.98 1.96 99 1010.5
20260507204051 12 324 0.0 9.7 0.00 1.98 1.96 99 1010.5
20260507203548 12 270 1.6 9.7 0.00 1.98 1.96 99 1010.6
20260507203059 12 28 1.6 9.7 0.00 1.98 1.96 99 1010.5
20260507202547 12 0 1.6 9.7 0.00 1.98 1.96 100 1010.4
20260507202053 12 79 0.0 9.7 0.00 1.98 1.96 100 1010.4
20260507201553 12 0 1.6 8.0 0.00 1.98 1.96 100 1010.2
20260507201051 12 237 0.0 8.0 0.00 1.98 1.96 100 1010.1
20260507200553 13 67 0.0 4.8 0.00 1.98 1.96 100 1010.1
20260507200050 13 263 0.0 4.8 0.00 1.98 1.96 100 1010.2
20260507195548 13 28 0.0 3.2 0.03 2.16 1.96 100 1010.3
20260507195048 13 88 0.0 8.0 0.03 2.16 1.96 100 1010.4
20260507194619 13 0 0.0 8.0 0.03 2.16 1.96 100 1010.0
20260507194049 13 344 0.0 9.7 0.03 2.16 1.96 100 1009.9
20260507193548 13 53 1.6 9.7 0.03 2.16 1.96 100 1010.0
20260507193053 13 0 0.0 6.4 0.03 2.16 1.96 100 1010.1
20260507192546 13 71 0.0 6.4 0.03 2.16 1.96 100 1010.3
20260507192047 13 56 1.6 9.7 0.03 2.16 1.96 100 1010.3
20260507191555 13 0 0.0 9.7 0.03 2.16 1.96 100 1010.3
20260507191047 13 22 1.6 9.7 0.03 2.16 1.96 100 1010.5
20260507190549 13 277 1.6 4.8 0.03 2.16 1.96 100 1010.4
20260507190052 13 0 0.0 4.8 0.03 2.16 1.96 100 1010.1
20260507185547 13 0 0.0 4.8 0.03 2.44 1.93 100 1010.0
20260507185048 13 262 0.0 3.2 0.03 2.44 1.93 100 1009.5
20260507184605 13 0 0.0 1.6 0.03 2.44 1.93 100 1009.9
20260507184051 13 0 0.0 3.2 0.05 2.44 1.93 100 1010.1
20260507183548 13 0 1.6 8.0 0.05 2.44 1.93 100 1010.3
20260507183055 13 0 1.6 8.0 0.05 2.44 1.93 99 1010.3
20260507182550 13 325 0.0 3.2 0.05 2.44 1.93 99 1009.7
20260507182050 14 227 1.6 4.8 0.05 2.44 1.93 100 1009.6
20260507181554 14 0 0.0 6.4 0.05 2.44 1.93 99 1009.3
20260507181048 14 72 1.6 8.0 0.05 2.44 1.93 99 1009.5
20260507180551 14 243 3.2 8.0 0.05 2.44 1.93 99 1009.6
20260507180057 15 84 1.6 4.8 0.05 2.44 1.93 99 1009.3
20260507175548 15 31 1.6 4.8 0.03 2.41 1.91 99 1009.6
20260507175048 15 66 1.6 6.4 0.03 2.41 1.91 99 1010.2
20260507174555 16 212 1.6 6.4 0.03 2.41 1.91 99 1010.2
20260507174048 16 22 1.6 8.0 0.03 2.39 1.88 99 1010.4
20260507173548 16 28 1.6 12.9 0.03 2.39 1.88 98 1010.0
20260507173055 17 53 4.8 12.9 0.03 2.39 1.88 97 1009.2
20260507172549 18 319 1.6 12.9 0.03 2.39 1.88 100 1009.1
20260507172049 19 0 0.0 0.0 0.03 2.39 1.88 100 1008.7
20260507171554 19 0 0.0 0.0 0.03 2.39 1.88 100 1008.6
20260507171048 19 0 0.0 0.0 0.03 2.39 1.88 100 1008.4
20260507170550 20 0 0.0 0.0 0.05 2.39 1.88 100 1008.5
20260507170052 20 0 0.0 0.0 0.10 2.39 1.88 100 1008.5
20260507165550 20 0 0.0 0.0 0.10 2.39 1.88 100 1008.4
20260507165049 20 0 0.0 0.0 0.10 2.39 1.88 100 1008.7
20260507164556 20 0 0.0 0.0 0.10 2.39 1.88 100 1008.8
20260507164048 20 0 0.0 1.6 0.08 2.36 1.85 100 1009.1
20260507163549 20 0 0.0 4.8 0.08 2.36 1.85 100 1009.6
20260507163051 20 0 1.6 8.0 0.08 2.36 1.85 100 1009.7
20260507162549 20 0 1.6 8.0 0.08 2.36 1.85 100 1009.7
20260507162050 20 0 0.0 4.8 0.08 2.36 1.85 100 1009.9
20260507161555 20 244 0.0 3.2 0.08 2.36 1.85 100 1009.9
20260507161047 20 0 0.0 4.8 0.08 2.36 1.85 100 1010.0
20260507160549 20 0 0.0 4.8 0.08 2.34 1.83 100 1010.3
20260507160052 20 0 0.0 0.0 0.05 2.29 1.78 100 1010.2
20260507155548 20 0 0.0 3.2 0.05 2.29 1.78 100 1010.1
20260507155051 20 0 0.0 3.2 0.08 2.29 1.78 100 1010.2
20260507154557 20 271 0.0 3.2 0.08 2.29 1.78 100 1010.0
20260507154048 20 265 0.0 3.2 0.08 2.29 1.78 100 1009.8
20260507153548 20 0 0.0 4.8 0.10 2.29 1.78 100 1009.5
20260507153058 19 0 0.0 4.8 0.13 2.29 1.78 100 1009.5
20260507152550 19 281 0.0 3.2 0.15 2.29 1.78 100 1010.0
20260507152048 19 121 0.0 1.6 0.18 2.29 1.78 100 1009.8
20260507151554 19 255 0.0 1.6 0.18 2.29 1.78 100 1010.0
20260507151049 19 0 0.0 0.0 0.18 2.29 1.78 100 1010.1
20260507150548 19 0 0.0 0.0 0.15 2.26 1.75 100 1010.1
20260507150057 19 0 0.0 0.0 0.15 2.24 1.73 100 1010.1
20260507145551 19 0 0.0 3.2 0.30 2.24 1.73 100 1010.3
20260507145047 19 0 0.0 4.8 0.41 2.21 1.70 100 1010.3
20260507144556 19 0 0.0 4.8 0.61 2.21 1.70 100 1010.3
20260507144051 19 247 0.0 4.8 0.61 2.18 1.68 100 1010.3
20260507143549 19 0 0.0 3.2 0.64 2.18 1.68 100 1010.3
20260507143107 19 0 0.0 4.8 0.64 2.16 1.65 100 1010.3
20260507142548 19 0 0.0 4.8 0.64 2.13 1.63 100 1010.3
20260507142048 19 0 0.0 6.4 0.64 2.11 1.60 100 1010.3
20260507141553 19 0 0.0 6.4 0.66 2.11 1.60 100 1010.2
20260507141048 19 239 0.0 6.4 0.69 2.11 1.60 100 1010.1
20260507140550 19 0 0.0 8.0 0.69 2.11 1.60 100 1010.3
20260507140053 19 236 0.0 8.0 0.69 2.08 1.57 99 1010.6
20260507135552 19 256 0.0 8.0 0.58 1.93 1.42 99 1010.6
20260507135048 19 0 1.6 8.0 0.43 1.78 1.27 99 1010.6
20260507134557 19 250 0.0 6.4 0.25 1.60 1.09 99 1010.8
20260507134049 19 0 0.0 6.4 0.23 1.57 1.07 99 1010.8
20260507133548 19 0 1.6 6.4 0.20 1.55 1.04 99 1010.8
20260507133100 19 189 1.6 6.4 0.18 1.52 1.02 99 1010.5
20260507132551 19 0 0.0 4.8 0.18 1.47 0.99 99 1010.8
20260507132047 19 250 1.6 4.8 0.15 1.47 0.97 99 1010.7
20260507131611 19 258 0.0 3.2 0.13 1.45 0.94 100 1010.6
20260507131049 19 0 0.0 3.2 0.10 1.42 0.91 100 1010.7
20260507130548 19 0 0.0 3.2 0.10 1.42 0.91 99 1010.7
20260507130055 18 0 0.0 3.2 0.08 1.40 0.89 99 1010.7
20260507125548 18 0 0.0 1.6 0.03 1.32 0.84 99 1010.8
20260507125049 18 0 0.0 1.6 0.03 1.32 0.84 99 1010.8
20260507124600 18 0 0.0 1.6 0.03 1.32 0.84 99 1010.7
20260507124048 18 0 0.0 0.0 0.03 1.32 0.84 99 1010.8
20260507123548 18 0 0.0 1.6 0.03 1.32 0.84 99 1010.8
20260507123055 18 0 0.0 1.6 0.00 1.32 0.81 99 1010.9
20260507122548 18 0 0.0 0.0 0.00 1.32 0.81 99 1010.7
20260507122049 18 0 0.0 1.6 0.03 1.32 0.81 99 1010.6
20260507121557 18 0 0.0 1.6 0.05 1.32 0.81 99 1010.7
20260507121048 18 0 0.0 1.6 0.13 1.32 0.81 99 1010.8
20260507120547 18 0 0.0 1.6 0.13 1.32 0.81 99 1010.8
20260507120054 18 0 0.0 1.6 0.13 1.32 0.81 99 1010.9
20260507115549 18 222 0.0 0.0 0.13 1.32 0.81 99 1010.8
20260507115050 18 0 0.0 6.4 0.13 1.32 0.81 99 1010.7
20260507114558 18 0 0.0 6.4 0.13 1.32 0.81 99 1011.0
20260507114047 18 222 1.6 6.4 0.13 1.32 0.81 99 1011.1
20260507113550 18 230 0.0 3.2 0.13 1.32 0.81 99 1011.1
20260507113100 18 0 0.0 6.4 0.13 1.32 0.81 99 1011.1
20260507112553 18 0 1.6 6.4 0.13 1.32 0.81 99 1010.9
20260507112050 18 258 1.6 6.4 0.10 1.30 0.79 99 1011.0
20260507111553 18 276 1.6 8.0 0.10 1.27 0.76 99 1011.1
20260507111048 18 151 1.6 8.0 0.03 1.19 0.69 99 1011.2
20260507110551 18 279 0.0 8.0 0.03 1.19 0.69 100 1011.1
20260507110053 18 0 1.6 4.8 0.03 1.19 0.69 100 1011.0
20260507105547 18 246 0.0 4.8 0.03 1.19 0.69 99 1010.8
20260507105048 18 0 1.6 4.8 0.05 1.19 0.69 99 1010.7
20260507104556 18 0 0.0 4.8 0.05 1.19 0.69 99 1010.7
20260507104047 18 0 0.0 4.8 0.05 1.19 0.69 99 1010.5
20260507103548 18 0 0.0 4.8 0.05 1.19 0.69 99 1010.7
20260507103052 18 238 1.6 6.4 0.05 1.19 0.69 99 1010.7
20260507102547 18 269 0.0 6.4 0.05 1.19 0.69 99 1010.6
20260507102049 18 286 1.6 4.8 0.03 1.17 0.66 100 1010.6
20260507101554 18 0 0.0 4.8 0.03 1.17 0.66 99 1010.7
20260507101048 18 0 0.0 4.8 0.05 1.17 0.66 99 1010.8
20260507100547 18 0 0.0 4.8 0.05 1.17 0.66 99 1010.7
20260507100053 18 0 0.0 4.8 0.05 1.17 0.66 99 1010.7
20260507095548 18 0 0.0 3.2 0.08 1.17 0.66 99 1010.6
20260507095048 18 0 0.0 1.6 0.05 1.14 0.64 99 1010.7
20260507094551 18 0 0.0 1.6 0.05 1.14 0.64 99 1010.7
20260507094052 18 0 0.0 6.4 0.05 1.14 0.64 99 1010.8
20260507093554 18 0 0.0 6.4 0.05 1.14 0.64 99 1010.8
20260507093055 18 0 0.0 0.0 0.05 1.14 0.64 99 1010.6
20260507092553 18 0 0.0 0.0 0.05 1.14 0.64 99 1010.7
20260507092051 18 0 0.0 0.0 0.05 1.14 0.64 99 1010.6
20260507091552 18 0 0.0 0.0 0.05 1.14 0.64 99 1010.6
20260507091054 18 0 0.0 0.0 0.03 1.12 0.61 99 1010.8
20260507090551 18 0 0.0 0.0 0.05 1.12 0.61 99 1010.9
20260507090054 18 0 0.0 0.0 0.08 1.12 0.61 99 1010.8
20260507085551 18 0 0.0 0.0 0.05 1.09 0.58 99 1010.8
20260507085051 18 0 0.0 1.6 0.05 1.09 0.58 99 1010.9
20260507084556 18 0 0.0 1.6 0.08 1.09 0.58 99 1010.9
20260507084051 18 0 0.0 0.0 0.10 1.09 0.58 99 1011.0
20260507083552 18 0 0.0 0.0 0.13 1.09 0.58 99 1011.2
20260507083053 18 0 0.0 0.0 0.13 1.09 0.58 99 1011.3
20260507082549 18 0 0.0 0.0 0.13 1.09 0.58 99 1011.4
20260507082053 18 0 0.0 1.6 0.13 1.09 0.58 99 1011.4
20260507081553 18 0 0.0 1.6 0.13 1.09 0.58 99 1011.5
20260507081048 18 0 0.0 1.6 0.13 1.09 0.58 99 1011.7
20260507080548 18 0 0.0 0.0 0.10 1.07 0.56 99 1011.3
20260507080115 18 0 0.0 0.0 0.08 1.04 0.53 99 1011.2
20260507075552 18 0 0.0 0.0 0.08 1.04 0.53 99 1011.3
20260507075055 18 0 0.0 0.0 0.08 1.04 0.53 99 1010.9
20260507074551 18 0 0.0 0.0 0.05 1.02 0.51 99 1011.4
20260507074051 18 0 0.0 3.2 0.03 0.99 0.48 99 1011.5
20260507073549 18 0 0.0 3.2 0.00 0.97 0.46 99 1011.9
20260507073053 18 260 0.0 3.2 0.00 0.97 0.46 99 1012.0
20260507072548 18 0 0.0 1.6 0.00 0.97 0.46 99 1011.8
20260507072051 18 0 0.0 1.6 0.00 0.97 0.46 99 1011.9
20260507071609 18 0 0.0 1.6 0.00 0.97 0.46 98 1011.6
20260507071048 18 0 0.0 0.0 0.00 0.97 0.46 98 1012.0
20260507070551 18 0 0.0 1.6 0.00 0.97 0.46 98 1011.8
20260507070057 18 0 0.0 1.6 0.00 0.97 0.46 98 1011.4
20260507065550 18 0 0.0 1.6 0.00 0.97 0.46 98 1011.6
20260507065051 18 0 0.0 0.0 0.00 0.97 0.46 98 1011.8
20260507064555 18 0 0.0 1.6 0.00 0.97 0.46 98 1011.9
20260507064052 18 0 0.0 1.6 0.00 0.97 0.46 98 1012.1
20260507063551 18 0 0.0 0.0 0.00 0.97 0.46 98 1012.5
20260507063056 18 0 0.0 0.0 0.00 0.97 0.46 98 1012.5
20260507062552 18 0 0.0 0.0 0.00 0.97 0.46 98 1012.6
20260507062048 18 0 0.0 0.0 0.00 0.97 0.46 98 1012.1
20260507061558 18 0 0.0 0.0 0.03 0.97 0.46 98 1012.2
20260507061052 18 0 0.0 0.0 0.05 0.97 0.46 98 1012.6
20260507060551 18 0 0.0 0.0 0.10 0.97 0.46 98 1013.0
20260507060057 18 0 0.0 1.6 0.13 0.97 0.46 98 1012.9
20260507055554 18 0 0.0 1.6 0.15 0.97 0.46 97 1012.8
20260507055047 18 250 0.0 1.6 0.18 0.97 0.46 97 1012.8
20260507054554 18 0 0.0 0.0 0.20 0.97 0.46 97 1012.6
20260507054051 18 0 0.0 0.0 0.25 0.97 0.46 97 1012.6
20260507053556 18 0 0.0 0.0 0.33 0.97 0.46 97 1011.9
20260507053120 18 0 0.0 0.0 0.36 0.97 0.46 97 1011.7
20260507052550 18 0 0.0 0.0 0.38 0.97 0.46 96 1011.9
20260507052051 18 0 0.0 0.0 0.41 0.97 0.46 96 1011.9
20260507051601 18 0 0.0 1.6 0.43 0.94 0.43 96 1011.9
20260507051052 18 0 0.0 1.6 0.41 0.91 0.41 96 1011.9
20260507050553 18 0 0.0 11.3 0.36 0.86 0.36 95 1012.9
20260507050059 19 0 0.0 11.3 0.33 0.84 0.33 95 1013.1
20260507045548 19 271 1.6 14.5 0.30 0.81 0.30 95 1013.5
20260507045048 19 0 3.2 16.1 0.28 0.79 0.28 94 1013.8
20260507044557 19 279 1.6 16.1 0.25 0.76 0.25 94 1014.0
20260507044048 20 0 3.2 14.5 0.20 0.71 0.20 93 1014.1
20260507043552 20 225 1.6 11.3 0.15 0.64 0.13 93 1013.9
20260507043054 20 244 3.2 11.3 0.13 0.61 0.10 92 1013.9
20260507042551 20 246 1.6 11.3 0.10 0.58 0.08 90 1013.8
20260507042051 20 234 1.6 11.3 0.08 0.56 0.05 89 1014.0
20260507041557 20 287 1.6 9.7 0.03 0.51 0.00 88 1013.8
20260507041051 21 238 3.2 12.9 0.03 0.51 0.00 88 1013.7
20260507040552 21 286 1.6 12.9 0.03 0.51 0.00 88 1013.6
20260507040100 21 260 1.6 6.4 0.03 0.51 0.00 88 1013.4
20260507035550 21 241 0.0 3.2 0.03 0.51 0.51 87 1013.4
20260507035053 21 0 0.0 1.6 0.03 0.51 0.51 86 1013.2
20260507034556 21 0 0.0 1.6 0.03 0.51 0.51 84 1012.9
20260507034049 22 0 0.0 3.2 0.03 0.51 0.51 82 1012.7
20260507033554 22 0 0.0 3.2 0.00 0.48 0.48 80 1012.5
20260507033052 22 0 0.0 11.3 0.00 0.48 0.48 79 1012.7
20260507032552 22 0 3.2 11.3 0.00 0.48 0.48 79 1013.2
20260507032048 22 288 0.0 9.7 0.00 0.48 0.48 78 1013.2
20260507031556 22 0 3.2 9.7 0.00 0.48 0.48 78 1013.1
20260507031048 22 0 1.6 8.0 0.00 0.48 0.48 78 1013.2
20260507030551 22 0 0.0 8.0 0.00 0.48 0.48 79 1013.0